Location: Castelbiague
(43.0361°N, 0.9246°E)
Time: 04:06:26
(UTC+00:00)

Meteor 1-4 Rocket - Visible Passes

Search period start: 17 October 2021 00:00
Search period end: 27 October 2021 00:00
Orbit: 446 x 499 km, 81.2° (Epoch: 16 October)

Date Brightness Start Highest point End Pass type
(mag) Time Alt. Az. Time Alt. Az. Time Alt. Az.
19 Oct 4.4 05:35:56 10° N 05:39:07 33° ENE 05:42:18 10° SE visible
20 Oct 5.4 05:07:47 10° NNE 05:10:21 19° ENE 05:12:57 10° ESE visible
20 Oct 4.1 18:50:13 10° S 18:51:40 23° S 18:51:40 23° S visible
21 Oct 5.9 04:40:18 10° NE 04:41:33 11° ENE 04:42:47 10° E visible
21 Oct 3.0 18:21:54 10° SSE 18:25:06 35° E 18:25:30 34° ENE visible
21 Oct 5.7 19:58:29 10° W 19:59:45 13° WNW 19:59:45 13° WNW visible
22 Oct 2.4 05:44:38 10° NNW 05:48:06 79° W 05:51:36 10° S visible
22 Oct 3.8 17:53:59 10° SE 17:56:34 20° E 17:59:09 10° NE visible
22 Oct 4.9 19:28:37 10° SW 19:31:24 22° WNW 19:33:34 13° NNW visible
23 Oct 3.3 05:16:02 10° N 05:19:27 53° ENE 05:22:53 10° SSE visible
23 Oct 4.4 17:26:57 10° ESE 17:28:05 11° E 17:29:13 10° ENE visible
23 Oct 3.9 18:59:22 10° SSW 19:02:38 38° WNW 19:05:54 10° N visible
24 Oct 4.6 04:47:38 10° NNE 04:50:43 29° ENE 04:53:50 10° SE visible
24 Oct 2.5 18:30:28 10° SSW 18:33:56 74° W 18:37:24 10° N visible
25 Oct 5.5 04:19:33 10° NNE 04:21:56 17° ENE 04:24:19 10° ESE visible
25 Oct 2.4 18:01:54 10° S 18:05:17 56° E 18:08:41 10° NNE visible
26 Oct 6.1 03:52:47 10° ENE 03:53:04 10° ENE 03:53:22 10° ENE visible
26 Oct 2.6 05:24:56 10° NNW 05:28:19 48° W 05:31:44 10° S visible
26 Oct 3.2 17:33:39 10° SSE 17:36:42 29° E 17:39:45 10° NNE visible
26 Oct 5.6 19:09:40 10° WSW 19:11:44 15° WNW 19:13:47 10° NNW visible
